Location: Unnamed
(48.6007°N, 2.4808°E)
Time: 16:19:06
(UTC+02:00)

First-Move - Visible Passes

Search period start: 01 April 2023 00:00
Search period end: 11 April 2023 00:00
Orbit: 563 x 644 km, 97.7° (Epoch: 31 March)

Date Brightness Start Highest point End Pass type
(mag) Time Alt. Az. Time Alt. Az. Time Alt. Az.
01 Apr ? 04:24:30 10° NE 04:26:53 15° E 04:29:02 11° ESE visible
01 Apr ? 05:59:03 10° N 06:03:06 57° WNW 06:05:52 19° SW visible
02 Apr ? 04:36:09 10° NE 04:39:10 20° E 04:41:27 13° SE visible
02 Apr ? 06:11:19 10° N 06:15:12 42° WNW 06:18:17 15° SW visible
03 Apr ? 04:47:58 10° NE 04:51:25 25° E 04:53:51 15° SE visible
03 Apr ? 06:23:35 10° N 06:27:15 32° WNW 06:30:40 11° SW visible
04 Apr ? 04:59:52 10° NNE 05:03:36 33° E 05:06:12 17° SSE visible
04 Apr ? 06:35:55 10° N 06:39:17 25° WNW 06:42:36 10° WSW visible
05 Apr ? 05:11:48 10° NNE 05:15:44 45° E 05:18:33 17° SSE visible
06 Apr ? 05:23:47 10° NNE 05:27:50 61° E 05:30:52 17° S visible
07 Apr ? 05:35:48 10° NNE 05:39:53 82° ESE 05:43:09 15° S visible
08 Apr ? 04:14:12 10° ENE 04:15:32 11° E 04:16:52 10° ESE visible
08 Apr ? 05:47:49 10° N 05:51:53 74° WNW 05:55:25 13° SSW visible
09 Apr ? 04:25:17 10° NE 04:27:40 15° E 04:30:03 10° SE visible
09 Apr ? 05:59:52 10° N 06:03:50 55° WNW 06:07:39 11° SSW visible
10 Apr ? 04:36:45 10° NE 04:39:46 20° E 04:42:44 10° SE visible
10 Apr ? 06:11:56 10° N 06:15:45 41° WNW 06:19:32 10° SW visible
